Regional Weather Roundup
Issued by NWS

Home | Current Version | Previous Version | Graphics & Text | Print | Product List | Glossary On
Versions: 1 2 3 4 5 6 7 8 9 10 11 12 13 14 15 16 17 18 19 20 21 22 23 24 25 26 27 28 29 30 31 32 33 34 35 36 37 38 39 40 41 42 43 44 45 46 47 48 49 50
000
ASUS43 KLSX 020707
RWRMO

WEATHER SUMMARY FOR MISSOURI
NATIONAL WEATHER SERVICE SPRINGFIELD MO
200 AM CDT THU OCT 02 2014

NOTE: "FAIR" INDICATES FEW OR NO CLOUDS BELOW 12,000 FEET WITH NO
       SIGNIFICANT WEATHER AND/OR OBSTRUCTIONS TO VISIBILITY.
       CURRENT SKY AND/OR WEATHER CONDITIONS ARE NOT AVAILABLE FOR
       CHILLICOTHE AND FARMINGTON.

MOZ001>031-035>038-043-044-053-054-020800-
...NORTHERN AND WESTERN MISSOURI...

CITY           SKY/WX    TMP DP  RH WIND       PRES   REMARKS
KANSAS CTY INT TSTM      66  64  93 VRB6      29.77R FOG
KANSAS C DTWN  MOCLDY    69  65  86 SE5       29.74S
LEE`S SUMMIT   MOCLDY    65  63  93 S8        29.76F
ST JOSEPH      PTCLDY    63  62  97 CALM      29.75F
CHILLICOTHE      N/A     66  64  93 CALM      29.77F
KIRKSVILLE     CLOUDY    65  65 100 S9        29.78F FOG

$$
MOZ066>068-077>081-088>096-101>105-020800-
...SOUTHWEST MISSOURI...

CITY           SKY/WX    TMP DP  RH WIND       PRES   REMARKS
SPRINGFIELD    CLEAR     73  67  81 S16       29.80F
JOPLIN         CLEAR     75  68  78 S15       29.76F

$$
MOZ032>034-039>042-045>050-055>058-069>072-020800-
...CENTRAL MISSOURI...

CITY           SKY/WX    TMP DP  RH WIND       PRES   REMARKS
COLUMBIA       TSTM      63  62  97 NE10      29.86F FOG
ROLLA          MOCLDY    72  67  84 S10       29.82R
SEDALIA        CLOUDY    66  64  93 E10       29.80F
WHITEMAN AFB   TSTM      64  63  97 W13       29.84R FOG
OSAGE BEACH    PTCLDY    72  64  78 S5        29.80S

$$
MOZ051-052-059>065-020800-
...EAST CENTRAL MISSOURI...

CITY           SKY/WX    TMP DP  RH WIND       PRES   REMARKS
ST LOUIS INTL  CLOUDY    70  66  88 E7        29.86S
SPIRIT OF STL  CLOUDY    68  67  96 E6        29.84R
ST CHARLES     CLOUDY    67  67 100 E5        29.84F

$$
MOZ072>076-082>087-097>100-106>115-020800-
...SOUTH CENTRAL AND SOUTHEAST MISSOURI...

CITY           SKY/WX    TMP DP  RH WIND       PRES   REMARKS
CAPE GIRARDEAU CLOUDY    73  62  68 S8        29.88S
FARMINGTON     PTCLDY    72  64  78 S10       29.89S
POPLAR BLUFF   MOCLDY    70  63  78 CALM      29.86F
WEST PLAINS    CLEAR     71  66  84 S9        29.88F

$$


USA.gov is the U.S. government's official web portal to all federal, state and local government web resources and services.